KJ4AJP Weather Reports


time (UTC)temp
C
wind
direction
speed
KPH
gust
KPH
rain 1hr
cm
rain 24hr
cm
rain mn
cm
humidity
%
barometer
mb
20260503211614 22 182 1.6 3.2 0.00 0.00 0.00 35 1016.3
20260503211109 22 18 4.8 6.4 0.00 0.00 0.00 32 1016.5
20260503210606 22 232 3.2 6.4 0.00 0.00 0.00 34 1016.5
20260503205559 22 317 6.4 9.7 0.00 0.00 0.00 33 1016.7
20260503205055 22 237 3.2 4.8 0.00 0.00 0.00 34 1016.6
20260503204552 22 319 3.2 3.2 0.00 0.00 0.00 34 1017.0
20260503204049 22 292 11.3 16.1 0.00 0.00 0.00 32 1017.1
20260503203546 22 272 8.0 9.7 0.00 0.00 0.00 33 1017.0
20260503203043 22 260 3.2 11.3 0.00 0.00 0.00 35 1017.2
20260503202541 22 64 1.6 3.2 0.00 0.00 0.00 32 1017.4
20260503202039 21 249 3.2 3.2 0.00 0.00 0.00 39 1017.4
20260503201537 21 213 8.0 9.7 0.00 0.00 0.00 33 1017.6
20260503201034 21 345 3.2 4.8 0.00 0.00 0.00 35 1017.6
20260503200530 22 317 8.0 12.9 0.00 0.00 0.00 32 1017.8
20260503200027 21 1 3.2 3.2 0.00 0.00 0.00 35 1018.2
20260503195524 21 194 6.4 12.9 0.00 0.00 0.00 34 1018.1
20260503195021 21 228 12.9 12.9 0.00 0.00 0.00 32 1018.3
20260503194518 21 261 8.0 11.3 0.00 0.00 0.00 33 1018.3
20260503194017 21 272 8.0 11.3 0.00 0.00 0.00 38 1018.7
20260503193514 21 309 6.4 6.4 0.00 0.00 0.00 33 1018.7
20260503193010 21 218 4.8 4.8 0.00 0.00 0.00 36 1018.7
20260503192506 21 265 9.7 12.9 0.00 0.00 0.00 35 1018.8
20260503192001 21 249 4.8 4.8 0.00 0.00 0.00 39 1019.0
20260503191459 21 357 1.6 3.2 0.00 0.00 0.00 40 1019.1
20260503190955 20 208 9.7 11.3 0.00 0.00 0.00 37 1019.1
20260503190453 20 308 8.0 11.3 0.00 0.00 0.00 36 1019.1
20260503185950 20 43 1.6 1.6 0.00 0.00 0.00 36 1019.1
20260503185446 20 278 9.7 11.3 0.00 0.00 0.00 35 1019.5
20260503184946 20 280 4.8 4.8 0.00 0.00 0.00 35 1019.3
20260503184442 20 355 3.2 3.2 0.00 0.00 0.00 35 1019.5
20260503183939 20 306 8.0 9.7 0.00 0.00 0.00 35 1019.4
20260503183435 20 247 4.8 6.4 0.00 0.00 0.00 37 1019.6
20260503182932 20 291 1.6 3.2 0.00 0.00 0.00 40 1019.7
20260503182431 20 198 3.2 4.8 0.00 0.00 0.00 38 1019.7
20260503181928 20 296 6.4 11.3 0.00 0.00 0.00 34 1019.7
20260503181425 20 73 4.8 6.4 0.00 0.00 0.00 37 1019.8
20260503180921 19 281 4.8 4.8 0.00 0.00 0.00 36 1019.8
20260503180420 20 302 9.7 16.1 0.00 0.00 0.00 38 1020.0
20260503175917 19 237 4.8 4.8 0.00 0.00 0.00 40 1020.1
20260503175415 19 232 11.3 16.1 0.00 0.00 0.00 38 1020.3
20260503174910 20 224 6.4 9.7 0.00 0.00 0.00 37 1020.2
20260503174409 19 347 6.4 11.3 0.00 0.00 0.00 39 1020.3
20260503173908 19 215 3.2 3.2 0.00 0.00 0.00 43 1020.4
20260503173405 19 197 4.8 4.8 0.00 0.00 0.00 42 1020.4
20260503172902 19 30 1.6 3.2 0.00 0.00 0.00 38 1020.4
20260503172359 19 311 4.8 4.8 0.00 0.00 0.00 41 1020.6
20260503171855 19 71 3.2 3.2 0.00 0.00 0.00 38 1020.6
20260503171352 18 49 1.6 3.2 0.00 0.00 0.00 39 1020.8
20260503170850 18 242 8.0 9.7 0.00 0.00 0.00 41 1020.8
20260503170346 18 216 4.8 4.8 0.00 0.00 0.00 40 1020.9
20260503150738 16 63 3.2 3.2 0.00 0.00 0.00 47 1021.9
20260503150234 16 85 6.4 6.4 0.00 0.00 0.00 49 1021.7
20260503140159 13 49 3.2 3.2 0.00 0.00 0.00 64 1021.9
20260503131128 10 37 1.6 3.2 0.00 0.00 0.00 81 1021.9
20260503130626 9 70 1.6 1.6 0.00 0.00 0.00 89 1022.0
20260503130123 8 63 0.0 0.0 0.00 0.00 0.00 97 1021.8
20260503110516 3 51 0.0 0.0 0.00 0.00 0.00 99 1021.1
20260503090408 3 51 0.0 0.0 0.00 0.00 0.00 99 1020.6
20260503081335 3 51 0.0 0.0 0.00 0.00 0.00 98 1020.6
20260503080831 3 51 0.0 0.0 0.00 0.00 0.00 98 1020.7
20260503080329 3 51 0.0 0.0 0.00 0.00 0.00 98 1020.5
20260503072805 3 51 0.0 0.0 0.00 0.00 0.00 98 1020.3
20260503072305 4 51 0.0 0.0 0.00 0.00 0.00 97 1020.3
20260503071758 4 51 0.0 0.0 0.00 0.00 0.00 98 1020.5
20260503071255 4 51 0.0 0.0 0.00 0.00 0.00 97 1020.4
20260503070751 4 51 0.0 0.0 0.00 0.00 0.00 97 1020.4
20260503070250 4 51 0.0 0.0 0.00 0.00 0.00 97 1020.4
20260503060214 5 51 0.0 0.0 0.00 0.00 0.00 96 1020.5
20260503054701 5 51 0.0 0.0 0.00 0.00 0.00 96 1020.4
20260503054159 5 51 0.0 0.0 0.00 0.00 0.00 95 1020.6
20260503053656 5 51 0.0 0.0 0.00 0.00 0.00 95 1020.6
20260503053155 5 51 0.0 0.0 0.00 0.00 0.00 95 1020.6
20260503052651 5 51 0.0 0.0 0.00 0.00 0.00 94 1020.6
20260503052147 5 51 0.0 0.0 0.00 0.00 0.00 94 1020.5
20260503051643 5 51 0.0 0.0 0.00 0.00 0.00 93 1020.4
20260503051141 5 51 0.0 0.0 0.00 0.00 0.00 93 1020.6
20260503050637 5 51 0.0 0.0 0.00 0.00 0.00 93 1020.5
20260503050134 6 51 0.0 0.0 0.00 0.00 0.00 93 1020.5
20260503045631 6 51 0.0 0.0 0.00 0.00 0.00 92 1020.6
20260503045128 6 51 0.0 0.0 0.00 0.00 0.00 92 1020.7
20260503044625 6 51 0.0 0.0 0.00 0.00 0.00 92 1020.3
20260503044123 6 51 0.0 0.0 0.00 0.00 0.00 92 1020.5
20260503043619 6 51 0.0 0.0 0.00 0.00 0.00 92 1020.4
20260503043116 6 51 0.0 0.0 0.00 0.00 0.00 91 1020.5
20260503042613 6 51 0.0 0.0 0.00 0.00 0.00 91 1020.4
20260503042108 6 51 0.0 0.0 0.00 0.00 0.00 90 1020.3
20260503041605 6 51 0.0 0.0 0.00 0.00 0.00 89 1020.5
20260503041103 6 51 0.0 0.0 0.00 0.00 0.00 89 1020.3
20260503040600 7 51 0.0 0.0 0.00 0.00 0.00 89 1020.3
20260503040057 7 51 0.0 0.0 0.00 0.00 0.00 89 1020.4
20260503035554 7 51 0.0 0.0 0.00 0.00 0.00 88 1020.3
20260503035052 7 51 0.0 0.0 0.00 0.00 0.00 87 1020.3
20260503034549 7 51 0.0 0.0 0.00 0.00 0.00 87 1020.3
20260503034046 7 51 0.0 0.0 0.00 0.00 0.00 86 1020.2
20260503033543 7 51 0.0 0.0 0.00 0.00 0.00 86 1020.2
20260503033041 7 51 0.0 0.0 0.00 0.00 0.00 86 1020.3
20260503032539 7 51 0.0 0.0 0.00 0.00 0.00 87 1020.3
20260503032037 7 51 0.0 0.0 0.00 0.00 0.00 87 1020.4
20260503031534 7 51 0.0 0.0 0.00 0.00 0.00 86 1020.2
20260503031031 7 51 0.0 0.0 0.00 0.00 0.00 84 1020.2
20260503030527 7 51 0.0 0.0 0.00 0.00 0.00 84 1020.3
20260503030025 7 51 0.0 0.0 0.00 0.00 0.00 85 1020.1
20260503025521 7 51 0.0 0.0 0.00 0.00 0.00 86 1020.3
20260503025019 7 51 0.0 0.0 0.00 0.00 0.00 86 1020.2
20260503024515 7 51 0.0 0.0 0.00 0.00 0.00 85 1020.1
20260503024012 7 51 0.0 0.0 0.00 0.00 0.00 84 1020.0
20260503023509 7 51 0.0 0.0 0.00 0.00 0.00 83 1020.1
20260503023006 7 51 0.0 0.0 0.00 0.00 0.00 80 1020.2
20260503022502 8 51 0.0 0.0 0.00 0.00 0.00 77 1020.0
20260503021957 8 51 0.0 0.0 0.00 0.00 0.00 76 1020.0
20260503021454 8 51 0.0 0.0 0.00 0.00 0.00 75 1019.8
20260503020951 9 51 0.0 0.0 0.00 0.00 0.00 74 1019.7
20260503020449 9 51 0.0 0.0 0.00 0.00 0.00 72 1019.8
20260503015945 9 51 0.0 0.0 0.00 0.00 0.00 72 1019.6
20260503015442 10 51 0.0 0.0 0.00 0.00 0.00 70 1019.5
20260503014938 10 51 0.0 0.0 0.00 0.00 0.00 68 1019.4
20260503014435 10 51 0.0 0.0 0.00 0.00 0.00 66 1019.5
20260503013933 11 51 0.0 0.0 0.00 0.00 0.00 65 1019.3
20260503013430 11 51 0.0 0.0 0.00 0.00 0.00 65 1019.4
20260503012927 11 51 0.0 0.0 0.00 0.00 0.00 63 1019.4
20260503012425 11 52 0.0 0.0 0.00 0.00 0.00 63 1019.2
20260503011921 11 52 0.0 0.0 0.00 0.00 0.00 62 1019.0
20260503011418 12 50 0.0 0.0 0.00 0.00 0.00 61 1019.1
20260503010915 12 54 0.0 0.0 0.00 0.00 0.00 60 1019.0
20260503010412 12 56 0.0 0.0 0.00 0.00 0.00 57 1018.8
20260503005909 12 56 0.0 0.0 0.00 0.00 0.00 56 1018.9
20260503005406 12 50 0.0 0.0 0.00 0.00 0.00 54 1018.8
20260503004902 13 59 0.0 1.6 0.00 0.00 0.00 54 1018.8
20260503004400 13 60 0.0 0.0 0.00 0.00 0.00 54 1018.8
20260503003857 13 41 0.0 1.6 0.00 0.00 0.00 53 1018.7
20260503003353 13 54 0.0 1.6 0.00 0.00 0.00 52 1018.6
20260503002851 13 51 0.0 0.0 0.00 0.00 0.00 54 1018.8
20260503002348 13 58 0.0 0.0 0.00 0.00 0.00 53 1018.7
20260503001844 13 79 1.6 1.6 0.00 0.00 0.00 55 1018.6
20260503001341 14 51 0.0 0.0 0.00 0.00 0.00 56 1018.3
20260503000838 14 57 1.6 3.2 0.00 0.00 0.00 56 1018.1
20260503000336 14 48 1.6 1.6 0.00 0.00 0.00 54 1018.0
20260502235832 14 45 1.6 1.6 0.00 0.00 0.00 53 1018.0
20260502235330 14 65 1.6 1.6 0.00 0.00 0.00 53 1018.0
20260502234826 15 53 0.0 0.0 0.00 0.00 0.00 53 1018.1
20260502234323 15 55 0.0 1.6 0.00 0.00 0.00 53 1017.9
20260502233820 15 49 3.2 4.8 0.00 0.00 0.00 54 1017.9
20260502233316 15 45 1.6 1.6 0.00 0.00 0.00 54 1018.0
20260502232813 15 53 1.6 1.6 0.00 0.00 0.00 53 1017.7
20260502232309 15 66 1.6 1.6 0.00 0.00 0.00 52 1017.9
20260502231806 15 64 1.6 3.2 0.00 0.00 0.00 52 1017.9
20260502231304 15 60 1.6 1.6 0.00 0.00 0.00 52 1017.9
20260502230802 15 59 1.6 1.6 0.00 0.00 0.00 51 1017.8
20260502230300 16 52 1.6 3.2 0.00 0.00 0.00 50 1017.7
20260502225756 16 7 3.2 4.8 0.00 0.00 0.00 50 1017.9
20260502225253 16 94 1.6 3.2 0.00 0.00 0.00 49 1017.8
20260502224749 16 39 1.6 3.2 0.00 0.00 0.00 48 1017.7
20260502224246 16 63 0.0 1.6 0.00 0.00 0.00 49 1017.9
20260502223744 16 49 0.0 0.0 0.00 0.00 0.00 49 1017.6
20260502223242 16 59 1.6 1.6 0.00 0.00 0.00 51 1017.8
20260502222739 16 54 1.6 3.2 0.00 0.00 0.00 51 1017.7
20260502222236 16 43 1.6 1.6 0.00 0.00 0.00 50 1017.5
20260502221731 16 50 1.6 3.2 0.00 0.00 0.00 52 1017.6
20260502221228 16 40 3.2 4.8 0.00 0.00 0.00 50 1017.4
20260502220725 16 51 3.2 6.4 0.00 0.00 0.00 50 1017.6
20260502220221 17 187 3.2 3.2 0.00 0.00 0.00 51 1017.4
20260502215718 17 54 1.6 3.2 0.00 0.00 0.00 49 1017.3
20260502215215 17 52 1.6 1.6 0.00 0.00 0.00 48 1017.2
20260502214712 17 54 3.2 3.2 0.00 0.00 0.00 48 1017.0
20260502214209 18 46 1.6 1.6 0.00 0.00 0.00 47 1016.9
20260502213707 18 20 1.6 1.6 0.00 0.00 0.00 46 1016.8
20260502213204 18 40 1.6 3.2 0.00 0.00 0.00 43 1016.8
20260502212702 19 17 4.8 6.4 0.00 0.00 0.00 38 1016.7
20260502212200 20 68 1.6 1.6 0.00 0.00 0.00 33 1016.6